Location: Harburg
(48.7667°N, 10.6667°E)
Time: 15:44:35
(UTC+00:00)

ERS-1 Rocket - Pass Details

Date: 18 September 2020
Orbit: 753 x 757 km, 98.5° (Epoch: 24 October)

Event Time Altitude Azimuth Distance (km) Brightness Sun altitude
Exits shadow 20:57:24 45° 337° (NNW) 1,036 3.9 -32.1°
Drops below altitude 10° 21:00:51 10° 344° (NNW) 2,295 6.2 -32.4°
Sets 21:03:10 0° 345° (NNW) 3,226 7.1 -32.7°
